• în România
  • Lista ţărilor
  • Pe 7 zile
  • Temperatura apei
  • Hartă satelitară
  • Meteo pe hartă
  • Widget-uri
  • user-avatar
    Intrare

    Meteo pe oră la Salgotarjan

    Astăzi, 22 Mai, Marţi

    Timp Temperatura Precipitaţii Vânt Presiune Umiditate
    00:00 +12°C° 0,2 mm 1 m/s 731 mmHg 92%
    01:00 +12°C° 0 mm 1 m/s 731 mmHg 93%
    02:00 +11°C° 0,2 mm 1 m/s 731 mmHg 94%
    03:00 +11°C° 0,2 mm 1 m/s 731 mmHg 94%
    04:00 +11°C° 0,2 mm 1 m/s 731 mmHg 95%
    05:00 +13°C° 0,2 mm 1 m/s 731 mmHg 92%
    06:00 +14°C° 0,2 mm 1 m/s 732 mmHg 89%
    07:00 +16°C° 0,2 mm 1 m/s 732 mmHg 86%
    08:00 +17°C° 0,2 mm 2 m/s 732 mmHg 83%
    09:00 +18°C° 0,2 mm 2 m/s 732 mmHg 80%
    10:00 +19°C° 0,2 mm 2 m/s 732 mmHg 77%
    11:00 +20°C° 0,2 mm 3 m/s 732 mmHg 75%
    12:00 +20°C° 0,2 mm 3 m/s 732 mmHg 73%
    13:00 +21°C° 0,2 mm 3 m/s 732 mmHg 71%
    14:00 +21°C° 0,3 mm 2 m/s 732 mmHg 72%
    15:00 +21°C° 0,3 mm 2 m/s 732 mmHg 72%
    16:00 +23°C° 0,3 mm 2 m/s 732 mmHg 73%
    17:00 +20°C° 0,7 mm 2 m/s 732 mmHg 78%
    18:00 +19°C° 0,7 mm 2 m/s 731 mmHg 83%
    19:00 +19°C° 0,7 mm 1 m/s 731 mmHg 89%
    20:00 +18°C° 1,2 mm 1 m/s 732 mmHg 90%
    21:00 +18°C° 1,2 mm 1 m/s 732 mmHg 92%
    22:00 +16°C° 1,2 mm 1 m/s 732 mmHg 93%
    23:00 +16°C° 0,7 mm 1 m/s 732 mmHg 93%

    Mâine, 23 Mai, Miercuri

    Timp Temperatura Precipitaţii Vânt Presiune Umiditate
    00:00 +16°C° 0,7 mm 1 m/s 732 mmHg 94%
    01:00 +15°C° 0,7 mm 1 m/s 732 mmHg 94%
    02:00 +15°C° 0,4 mm 1 m/s 732 mmHg 95%
    03:00 +15°C° 0,4 mm 1 m/s 732 mmHg 95%
    04:00 +15°C° 0,4 mm 1 m/s 732 mmHg 95%
    05:00 +16°C° 0,2 mm 1 m/s 733 mmHg 93%
    06:00 +17°C° 0,2 mm 2 m/s 733 mmHg 91%
    07:00 +18°C° 0,2 mm 2 m/s 733 mmHg 89%
    08:00 +19°C° 0,1 mm 2 m/s 733 mmHg 83%
    09:00 +20°C° 0,1 mm 2 m/s 734 mmHg 77%
    10:00 +23°C° 0,1 mm 2 m/s 734 mmHg 70%
    11:00 +23°C° 0,4 mm 2 m/s 734 mmHg 69%
    12:00 +24°C° 0,4 mm 2 m/s 734 mmHg 69%
    13:00 +24°C° 0,4 mm 2 m/s 733 mmHg 68%
    14:00 +24°C° 0,6 mm 2 m/s 733 mmHg 69%
    15:00 +24°C° 0,6 mm 1 m/s 733 mmHg 70%
    16:00 +24°C° 0,6 mm 1 m/s 733 mmHg 70%
    17:00 +23°C° 0,2 mm 1 m/s 733 mmHg 76%
    18:00 +22°C° 0,2 mm 1 m/s 732 mmHg 81%
    19:00 +20°C° 0,2 mm 1 m/s 732 mmHg 87%
    20:00 +19°C° 0,7 mm 1 m/s 733 mmHg 88%
    21:00 +19°C° 0,7 mm 1 m/s 733 mmHg 90%
    22:00 +18°C° 0,7 mm 1 m/s 733 mmHg 92%
    23:00 +16°C° 0,1 mm 1 m/s 733 mmHg 92%

    Poimâine, 24 Mai, Joi

    Timp Temperatura Precipitaţii Vânt Presiune Umiditate
    00:00 +16°C° 0,1 mm 1 m/s 733 mmHg 92%
    01:00 +16°C° 0,1 mm 2 m/s 733 mmHg 93%
    02:00 +16°C° 0,1 mm 2 m/s 733 mmHg 93%
    03:00 +15°C° 0,1 mm 1 m/s 733 mmHg 93%
    04:00 +15°C° 0,1 mm 1 m/s 733 mmHg 93%
    05:00 +16°C° 0 mm 2 m/s 733 mmHg 89%
    06:00 +18°C° 0 mm 2 m/s 733 mmHg 85%
    07:00 +19°C° 0 mm 2 m/s 734 mmHg 80%
    08:00 +21°C° 0 mm 2 m/s 734 mmHg 73%
    09:00 +24°C° 0 mm 3 m/s 734 mmHg 65%
    10:00 +25°C° 0 mm 3 m/s 734 mmHg 58%
    11:00 +26°C° 0,2 mm 3 m/s 734 mmHg 57%
    12:00 +26°C° 0,2 mm 3 m/s 733 mmHg 56%
    13:00 +27°C° 0,2 mm 3 m/s 733 mmHg 55%
    14:00 +26°C° 0,7 mm 3 m/s 733 mmHg 61%
    15:00 +25°C° 0,7 mm 3 m/s 733 mmHg 66%
    16:00 +25°C° 0,7 mm 3 m/s 733 mmHg 72%
    17:00 +22°C° 0,2 mm 3 m/s 732 mmHg 76%
    18:00 +21°C° 0,2 mm 3 m/s 732 mmHg 80%
    19:00 +19°C° 0,2 mm 3 m/s 732 mmHg 83%
    20:00 +18°C° 0,2 mm 3 m/s 733 mmHg 85%
    21:00 +17°C° 0,2 mm 3 m/s 733 mmHg 86%
    22:00 +17°C° 0,2 mm 3 m/s 733 mmHg 87%
    23:00 +16°C° 0,1 mm 3 m/s 733 mmHg 87%

    25 Mai, Vineri

    Timp Temperatura Precipitaţii Vânt Presiune Umiditate
    00:00 +16°C° 0,1 mm 3 m/s 733 mmHg 87%
    01:00 +14°C° 0,1 mm 3 m/s 733 mmHg 88%
    02:00 +14°C° 0 mm 3 m/s 733 mmHg 88%
    03:00 +14°C° 0 mm 3 m/s 733 mmHg 88%
    04:00 +15°C° 0 mm 2 m/s 733 mmHg 88%
    05:00 +16°C° 0 mm 3 m/s 733 mmHg 84%
    06:00 +18°C° 0 mm 3 m/s 733 mmHg 79%
    07:00 +19°C° 0 mm 3 m/s 733 mmHg 75%
    08:00 +20°C° 0 mm 3 m/s 733 mmHg 69%
    09:00 +22°C° 0 mm 3 m/s 733 mmHg 64%
    10:00 +23°C° 0 mm 4 m/s 734 mmHg 59%
    11:00 +25°C° 0,2 mm 3 m/s 733 mmHg 58%
    12:00 +25°C° 0,2 mm 3 m/s 733 mmHg 57%
    13:00 +26°C° 0,2 mm 3 m/s 733 mmHg 56%
    14:00 +26°C° 0,5 mm 3 m/s 733 mmHg 57%
    15:00 +25°C° 0,5 mm 3 m/s 733 mmHg 59%
    16:00 +25°C° 0,5 mm 2 m/s 733 mmHg 60%
    17:00 +24°C° 0,5 mm 2 m/s 733 mmHg 67%
    18:00 +21°C° 0,5 mm 2 m/s 733 mmHg 73%
    19:00 +20°C° 0,5 mm 1 m/s 732 mmHg 80%
    20:00 +18°C° 0,2 mm 2 m/s 733 mmHg 82%
    21:00 +17°C° 0,2 mm 2 m/s 733 mmHg 85%
    22:00 +16°C° 0,2 mm 2 m/s 733 mmHg 87%
    23:00 +16°C° 0 mm 2 m/s 733 mmHg 88%

    26 Mai, Sâmbătă

    Timp Temperatura Precipitaţii Vânt Presiune Umiditate
    00:00 +15°C° 0 mm 2 m/s 733 mmHg 89%
    01:00 +15°C° 0 mm 2 m/s 733 mmHg 90%
    02:00 +14°C° 0,1 mm 2 m/s 733 mmHg 90%
    03:00 +14°C° 0,1 mm 2 m/s 733 mmHg 90%
    04:00 +14°C° 0,1 mm 2 m/s 733 mmHg 90%
    05:00 +16°C° 0,1 mm 2 m/s 734 mmHg 85%
    06:00 +17°C° 0,1 mm 2 m/s 734 mmHg 80%
    07:00 +19°C° 0,1 mm 2 m/s 734 mmHg 75%
    08:00 +22°C° 0,3 mm 1 m/s 735 mmHg 69%
    09:00 +24°C° 0,3 mm 1 m/s 735 mmHg 63%
    10:00 +25°C° 0,3 mm 1 m/s 735 mmHg 58%
    11:00 +26°C° 0,3 mm 1 m/s 735 mmHg 54%
    12:00 +27°C° 0,3 mm 1 m/s 735 mmHg 51%
    13:00 +28°C° 0,3 mm 1 m/s 735 mmHg 48%
    14:00 +27°C° 0,1 mm 1 m/s 734 mmHg 49%
    15:00 +27°C° 0,1 mm 1 m/s 734 mmHg 51%
    16:00 +27°C° 0,1 mm 1 m/s 734 mmHg 52%
    17:00 +25°C° 0,2 mm 1 m/s 734 mmHg 60%
    18:00 +23°C° 0,2 mm 1 m/s 734 mmHg 69%
    19:00 +21°C° 0,2 mm 1 m/s 734 mmHg 77%
    20:00 +20°C° 0 mm 1 m/s 734 mmHg 79%
    21:00 +19°C° 0 mm 1 m/s 734 mmHg 81%
    22:00 +18°C° 0 mm 1 m/s 734 mmHg 84%
    23:00 +18°C° 0 mm 1 m/s 734 mmHg 85%

    27 Mai, Duminică

    Timp Temperatura Precipitaţii Vânt Presiune Umiditate
    00:00 +16°C° 0 mm 1 m/s 734 mmHg 86%
    01:00 +16°C° 0 mm 1 m/s 734 mmHg 87%
    02:00 +16°C° 0 mm 1 m/s 734 mmHg 88%
    03:00 +15°C° 0 mm 1 m/s 734 mmHg 88%
    04:00 +15°C° 0 mm 1 m/s 734 mmHg 89%
    05:00 +18°C° 0 mm 1 m/s 734 mmHg 84%
    06:00 +19°C° 0 mm 1 m/s 734 mmHg 79%
    07:00 +21°C° 0 mm 1 m/s 735 mmHg 74%
    08:00 +23°C° 0,2 mm 1 m/s 735 mmHg 71%
    09:00 +24°C° 0,2 mm 1 m/s 735 mmHg 67%
    10:00 +26°C° 0,2 mm 1 m/s 735 mmHg 64%
    11:00 +26°C° 0,5 mm 1 m/s 735 mmHg 60%
    12:00 +27°C° 0,5 mm 1 m/s 735 mmHg 57%
    13:00 +28°C° 0,5 mm 1 m/s 734 mmHg 53%
    14:00 +28°C° 0,3 mm 1 m/s 734 mmHg 53%
    15:00 +27°C° 0,3 mm 1 m/s 734 mmHg 53%
    16:00 +27°C° 0,3 mm 1 m/s 734 mmHg 53%
    17:00 +25°C° 0,1 mm 1 m/s 734 mmHg 60%
    18:00 +24°C° 0,1 mm 1 m/s 733 mmHg 66%
    19:00 +22°C° 0,1 mm 1 m/s 733 mmHg 73%
    20:00 +21°C° 0,1 mm 1 m/s 734 mmHg 76%
    21:00 +20°C° 0,1 mm 1 m/s 734 mmHg 80%
    22:00 +19°C° 0,1 mm 1 m/s 734 mmHg 83%
    23:00 +18°C° 0,1 mm 1 m/s 734 mmHg 85%
    Arată mai mult